PA1CD-13 Weather Reports


time (UTC)temp
C
wind
direction
speed
KPH
gust
KPH
rain 1hr
cm
rain 24hr
cm
rain mn
cm
humidity
%
barometer
mb
20260503005405 12 0 0.0 0.0 0.08 0.03 0.08 1 1010.7
20260503005206 12 0 0.0 0.0 0.08 0.03 0.08 1 1010.8
20260503005005 12 0 0.0 0.0 0.08 0.03 0.08 1 1010.9
20260503004806 12 0 0.0 0.0 0.08 0.03 0.08 1 1010.9
20260503004605 12 0 0.0 0.0 0.08 0.03 0.08 1 1011.0
20260503004405 12 0 0.0 0.0 0.08 0.03 0.08 1 1011.0
20260503004207 12 52 0.0 0.0 0.08 0.03 0.05 1 1011.2
20260503004006 12 52 0.0 0.0 0.05 0.03 0.05 1 1011.2
20260503003805 12 52 0.0 0.0 0.05 0.03 0.05 1 1011.1
20260503003605 12 65 0.0 0.0 0.05 0.03 0.05 1 1010.9
20260503003405 12 0 0.0 0.0 0.05 0.03 0.05 1 1011.0
20260503003206 12 117 0.0 0.0 0.05 0.03 0.05 1 1011.1
20260503003009 12 117 0.0 0.0 0.05 0.03 0.05 1 1011.4
20260503002806 12 0 0.0 0.0 0.05 0.03 0.05 1 1011.5
20260503002604 12 0 0.0 0.0 0.05 0.03 0.05 1 1011.7
20260503002405 12 0 0.0 0.0 0.05 0.03 0.05 1 1011.8
20260503002205 12 0 0.0 0.0 0.05 0.03 0.05 1 1011.7
20260503002006 12 0 0.0 0.0 0.05 0.03 0.05 1 1011.4
20260503001805 12 0 0.0 0.0 0.05 0.03 0.05 1 1011.3
20260503001604 12 0 0.0 0.0 0.05 0.03 0.05 1 1011.1
20260503001404 12 0 0.0 0.0 0.05 0.03 0.05 1 1011.3
20260503001206 12 113 0.0 0.0 0.05 0.03 0.05 1 1011.4
20260503001005 12 124 0.0 0.0 0.05 0.03 0.05 1 1011.6
20260503000805 12 145 0.0 0.0 0.05 0.03 0.05 1 1011.9
20260503000605 12 0 0.0 0.0 0.03 0.03 0.03 1 1012.2
20260503000405 12 149 0.0 0.0 0.03 0.03 0.03 1 1012.4
20260503000205 12 172 0.0 0.0 0.03 0.03 0.03 1 1012.5
20260503000008 12 159 0.0 0.0 0.03 0.00 0.03 1 1012.5
20260502235805 12 159 0.0 4.8 0.00 0.00 0.00 1 1012.6
20260502235606 12 0 0.0 4.8 0.00 0.00 0.00 1 1012.7
20260502235405 12 158 0.0 4.8 0.00 0.00 0.00 1 1012.7
20260502235205 12 0 0.0 4.8 0.00 0.00 0.00 1 1012.9
20260502235007 12 0 1.6 4.8 0.00 0.00 0.00 1 1013.0
20260502234805 12 0 0.0 3.2 0.00 0.00 0.00 1 1013.1
20260502234606 12 0 0.0 0.0 0.00 0.00 0.00 1 1012.8
20260502234405 11 0 0.0 0.0 0.00 0.00 0.00 1 1012.6
20260502234206 11 0 0.0 0.0 0.00 0.00 0.00 1 1012.6
20260502234007 11 145 0.0 0.0 0.00 0.00 0.00 1 1012.5
20260502233805 11 144 0.0 0.0 0.00 0.00 0.00 1 1012.5
20260502233602 11 144 0.0 0.0 0.00 0.00 0.00 1 1012.5
20260502233403 11 144 0.0 0.0 0.00 0.00 0.00 1 1012.5
20260502233202 11 144 0.0 0.0 0.00 0.00 0.00 1 1012.5
20260502232946 11 144 0.0 0.0 0.00 0.00 0.00 1 1012.5
20260502232746 11 127 0.0 0.0 0.00 0.00 0.00 1 1012.6
20260502232545 11 127 0.0 0.0 0.00 0.00 0.00 1 1012.6
20260502232345 11 127 0.0 0.0 0.00 0.00 0.00 1 1012.5
20260502232145 11 127 0.0 0.0 0.00 0.00 0.00 1 1012.4
20260502231937 11 127 0.0 0.0 0.00 0.00 0.00 1 1012.3
20260502231732 11 127 0.0 0.0 0.00 0.00 0.00 1 1012.4
20260502231531 11 127 0.0 0.0 0.00 0.00 0.00 1 1012.4
20260502231331 11 127 0.0 0.0 0.00 0.00 0.00 1 1012.5
20260502231131 11 127 0.0 0.0 0.00 0.00 0.00 1 1012.5
20260502230913 11 123 0.0 0.0 0.00 0.00 0.00 1 1012.6
20260502230708 11 121 0.0 0.0 0.00 0.00 0.00 1 1012.6
20260502230507 11 133 0.0 0.0 0.00 0.00 0.00 1 1012.3
20260502230307 11 133 0.0 0.0 0.00 0.00 0.00 1 1012.7
20260502230105 11 114 0.0 0.0 0.00 0.00 0.00 1 1012.8
20260502225905 10 0 0.0 0.0 0.00 0.00 0.00 1 1012.4
20260502225705 10 0 0.0 0.0 0.00 0.00 0.00 1 1012.1
20260502225506 10 0 0.0 0.0 0.00 0.00 0.00 1 1012.1
20260502225307 10 0 0.0 0.0 0.00 0.00 0.00 1 1012.1
20260502225105 10 0 0.0 0.0 0.00 0.00 0.00 1 1012.0
20260502224905 10 0 0.0 0.0 0.00 0.00 0.00 1 1012.1
20260502224705 10 0 0.0 0.0 0.00 0.00 0.00 1 1012.1
20260502224505 10 0 0.0 0.0 0.00 0.00 0.00 1 1012.1
20260502224307 10 0 0.0 0.0 0.00 0.00 0.00 1 1012.2
20260502224105 10 0 0.0 0.0 0.00 0.00 0.00 1 1012.2
20260502223906 10 0 0.0 0.0 0.00 0.00 0.00 1 1012.2
20260502223707 10 0 0.0 0.0 0.00 0.00 0.00 1 1012.2
20260502223505 10 0 0.0 0.0 0.00 0.00 0.00 1 1012.2
20260502223306 10 0 0.0 0.0 0.00 0.00 0.00 1 1012.1
20260502223105 10 0 0.0 0.0 0.00 0.00 0.00 1 1012.1
20260502222906 10 0 0.0 0.0 0.00 0.00 0.00 1 1012.1
20260502222705 10 0 0.0 0.0 0.00 0.00 0.00 1 1012.1
20260502222506 10 0 0.0 0.0 0.00 0.00 0.00 1 1012.1
20260502222307 10 0 0.0 0.0 0.00 0.00 0.00 1 1012.1
20260502222105 10 0 0.0 0.0 0.00 0.00 0.00 1 1012.1
20260502221906 11 0 0.0 0.0 0.00 0.00 0.00 1 1012.1
20260502221706 11 78 0.0 0.0 0.00 0.00 0.00 1 1012.2
20260502221505 11 73 0.0 0.0 0.00 0.00 0.00 1 1012.2
20260502221306 11 73 0.0 0.0 0.00 0.00 0.00 1 1012.2
20260502221106 11 73 0.0 0.0 0.00 0.00 0.00 1 1012.2
20260502220905 11 73 0.0 0.0 0.00 0.00 0.00 1 1012.2
20260502220706 11 71 0.0 0.0 0.00 0.00 0.00 1 1012.2
20260502220517 11 71 0.0 0.0 0.00 0.00 0.00 1 1012.2
20260502220306 11 71 0.0 0.0 0.00 0.00 0.00 1 1012.1
20260502220105 11 62 0.0 0.0 0.00 0.00 0.00 1 1012.2
20260502215905 11 54 0.0 0.0 0.00 0.00 0.00 1 1012.2
20260502215705 11 51 0.0 0.0 0.00 0.00 0.00 1 1012.2
20260502215506 11 51 0.0 0.0 0.00 0.00 0.00 2 1012.2
20260502215307 11 42 0.0 0.0 0.00 0.00 0.00 2 1012.3
20260502215105 11 42 0.0 0.0 0.00 0.00 0.00 3 1012.3
20260502214906 11 42 0.0 0.0 0.00 0.00 0.00 3 1012.4
20260502214705 11 42 0.0 0.0 0.00 0.00 0.00 3 1012.5
20260502214506 11 42 0.0 0.0 0.00 0.00 0.00 3 1012.6
20260502214307 11 42 0.0 0.0 0.00 0.00 0.00 3 1012.5
20260502214106 11 42 0.0 0.0 0.00 0.00 0.00 4 1012.5
20260502213905 11 42 0.0 0.0 0.00 0.00 0.00 5 1012.5
20260502213706 11 42 0.0 0.0 0.00 0.00 0.00 6 1012.5
20260502213505 11 42 0.0 0.0 0.00 0.00 0.00 6 1012.6
20260502213307 11 42 0.0 0.0 0.00 0.00 0.00 7 1012.6
20260502213104 11 42 0.0 0.0 0.00 0.00 0.00 9 1012.6
20260502212905 11 42 0.0 0.0 0.00 0.00 0.00 10 1012.5
20260502212706 11 42 0.0 0.0 0.00 0.00 0.00 10 1012.6
20260502212506 11 42 0.0 0.0 0.00 0.00 0.00 11 1012.7
20260502212307 11 42 0.0 0.0 0.00 0.00 0.00 11 1012.7
20260502212106 12 42 0.0 0.0 0.00 0.00 0.00 12 1012.7
20260502211905 12 42 0.0 0.0 0.00 0.00 0.00 13 1012.7
20260502211706 12 42 0.0 0.0 0.00 0.00 0.00 13 1012.8
20260502211505 12 42 0.0 0.0 0.00 0.00 0.00 16 1012.8
20260502211306 12 42 0.0 0.0 0.00 0.00 0.00 17 1012.7
20260502211105 12 42 0.0 0.0 0.00 0.00 0.00 20 1012.8
20260502210905 12 39 0.0 0.0 0.00 0.00 0.00 21 1012.8
20260502210705 12 39 0.0 0.0 0.00 0.00 0.00 23 1012.8
20260502210506 12 39 0.0 0.0 0.00 0.00 0.00 23 1012.8
20260502210307 12 39 0.0 0.0 0.00 0.00 0.00 24 1012.8
20260502210106 12 38 0.0 0.0 0.00 0.00 0.00 25 1012.7
20260502205905 12 38 0.0 0.0 0.00 0.00 0.00 24 1012.8
20260502205704 12 38 0.0 0.0 0.00 0.00 0.00 24 1012.8
20260502205507 12 38 0.0 0.0 0.00 0.00 0.00 23 1012.9
20260502205307 12 38 0.0 0.0 0.00 0.00 0.00 23 1012.8
20260502205105 12 38 0.0 0.0 0.00 0.00 0.00 23 1012.9
20260502204906 12 38 0.0 0.0 0.00 0.00 0.00 24 1012.9
20260502204705 12 38 0.0 0.0 0.00 0.00 0.00 24 1012.9
20260502204506 12 38 0.0 0.0 0.00 0.00 0.00 25 1012.9
20260502204307 13 38 0.0 0.0 0.00 0.00 0.00 25 1012.8
20260502204106 13 38 0.0 0.0 0.00 0.00 0.00 25 1012.9
20260502203905 13 38 0.0 0.0 0.00 0.00 0.00 25 1013.0
20260502203706 13 38 0.0 0.0 0.00 0.00 0.00 25 1013.1
20260502203505 13 38 0.0 0.0 0.00 0.00 0.00 26 1013.1
20260502203308 13 38 0.0 0.0 0.00 0.00 0.00 26 1013.1
20260502203105 13 35 0.0 0.0 0.00 0.00 0.00 26 1013.1
20260502202906 13 35 0.0 0.0 0.00 0.00 0.00 27 1013.2
20260502202706 13 35 0.0 0.0 0.00 0.00 0.00 27 1013.2
20260502202505 13 35 0.0 0.0 0.00 0.00 0.00 27 1013.2
20260502202306 13 35 0.0 0.0 0.00 0.00 0.00 28 1013.1
20260502202105 13 35 0.0 0.0 0.00 0.00 0.00 28 1013.3
20260502201905 13 24 0.0 0.0 0.00 0.00 0.00 29 1013.2
20260502201706 13 24 0.0 0.0 0.00 0.00 0.00 29 1013.3
20260502201506 13 24 0.0 0.0 0.00 0.00 0.00 30 1013.4
20260502201307 13 24 0.0 0.0 0.00 0.00 0.00 30 1013.4
20260502201102 13 24 0.0 0.0 0.00 0.00 0.00 30 1013.4
20260502200905 13 24 0.0 0.0 0.00 0.00 0.00 30 1013.4
20260502200706 13 24 0.0 0.0 0.00 0.00 0.00 31 1013.3
20260502200505 13 24 0.0 0.0 0.00 0.00 0.00 31 1013.4
20260502200306 13 24 0.0 0.0 0.00 0.00 0.00 31 1013.3
20260502200106 13 24 0.0 0.0 0.00 0.00 0.00 33 1013.4
20260502195905 13 24 0.0 0.0 0.00 0.00 0.00 33 1013.4
20260502195705 13 24 0.0 0.0 0.00 0.00 0.00 33 1013.4
20260502195505 13 24 0.0 0.0 0.00 0.00 0.00 33 1013.3
20260502195307 14 24 0.0 0.0 0.00 0.00 0.00 34 1013.4
20260502195106 14 24 0.0 0.0 0.00 0.00 0.00 34 1013.4
20260502194905 14 24 0.0 0.0 0.00 0.00 0.00 35 1013.4
20260502194705 14 24 0.0 0.0 0.00 0.00 0.00 35 1013.4
20260502194506 14 24 0.0 0.0 0.00 0.00 0.00 35 1013.3
20260502194301 14 24 0.0 0.0 0.00 0.00 0.00 35 1013.3
20260502194105 14 24 0.0 0.0 0.00 0.00 0.00 36 1013.4
20260502193905 14 24 0.0 0.0 0.00 0.00 0.00 36 1013.4
20260502193705 14 24 0.0 0.0 0.00 0.00 0.00 37 1013.4
20260502193506 14 24 0.0 0.0 0.00 0.00 0.00 37 1013.4
20260502193306 14 24 0.0 0.0 0.00 0.00 0.00 37 1013.5
20260502193105 14 24 0.0 0.0 0.00 0.00 0.00 38 1013.4
20260502192906 14 24 0.0 0.0 0.00 0.00 0.00 38 1013.4
20260502192705 14 24 0.0 0.0 0.00 0.00 0.00 38 1013.4
20260502192506 14 24 0.0 0.0 0.00 0.00 0.00 38 1013.4
20260502192306 15 24 0.0 0.0 0.00 0.00 0.00 38 1013.4
20260502192105 15 24 0.0 0.0 0.00 0.00 0.00 38 1013.5
20260502191905 15 24 0.0 0.0 0.00 0.00 0.00 38 1013.4
20260502191705 15 24 0.0 0.0 0.00 0.00 0.00 38 1013.5
20260502191507 15 24 0.0 0.0 0.00 0.00 0.00 38 1013.6
20260502191307 15 24 0.0 0.0 0.00 0.00 0.00 38 1013.5
20260502191105 15 24 0.0 0.0 0.00 0.00 0.00 38 1013.4
20260502190905 15 24 0.0 0.0 0.00 0.00 0.00 38 1013.5
20260502190705 15 24 0.0 0.0 0.00 0.00 0.00 38 1013.4
20260502190505 15 24 0.0 0.0 0.00 0.00 0.00 38 1013.5
20260502190307 15 24 0.0 0.0 0.00 0.00 0.00 38 1013.4
20260502190105 15 24 0.0 0.0 0.00 0.00 0.00 38 1013.4
20260502185836 15 24 0.0 0.0 0.00 0.00 0.00 38 1013.4
20260502185636 15 24 0.0 0.0 0.00 0.00 0.00 38 1013.4
20260502185436 15 25 0.0 0.0 0.00 0.00 0.00 38 1013.4
20260502185236 15 25 0.0 0.0 0.00 0.00 0.00 38 1013.3
20260502185038 15 25 0.0 0.0 0.00 0.00 0.00 38 1013.4
20260502184836 15 25 0.0 0.0 0.00 0.00 0.00 38 1013.5
20260502184636 15 25 0.0 0.0 0.00 0.00 0.00 38 1013.4
20260502184437 16 25 0.0 0.0 0.00 0.00 0.00 38 1013.4
20260502184237 16 27 0.0 0.0 0.00 0.00 0.00 38 1013.4
20260502184036 16 25 0.0 0.0 0.00 0.00 0.00 38 1013.5
20260502183836 16 20 0.0 0.0 0.00 0.00 0.00 38 1013.4
20260502183636 16 20 0.0 0.0 0.00 0.00 0.00 39 1013.5
20260502183436 16 20 0.0 0.0 0.00 0.00 0.00 39 1013.5
20260502183236 16 20 0.0 0.0 0.00 0.00 0.00 39 1013.5
20260502183037 16 20 0.0 0.0 0.00 0.00 0.00 39 1013.5
20260502182837 16 20 0.0 0.0 0.00 0.00 0.00 40 1013.5
20260502182637 16 20 0.0 0.0 0.00 0.00 0.00 40 1013.5
20260502182436 16 20 0.0 0.0 0.00 0.00 0.00 40 1013.5
20260502182236 16 20 0.0 0.0 0.00 0.00 0.00 42 1013.6
20260502182036 16 20 0.0 0.0 0.00 0.00 0.00 42 1013.6
20260502181835 16 21 0.0 0.0 0.00 0.00 0.00 43 1013.6
20260502181635 16 21 0.0 0.0 0.00 0.00 0.00 45 1013.6
20260502181435 16 21 0.0 0.0 0.00 0.00 0.00 45 1013.6
20260502181236 16 23 0.0 0.0 0.00 0.00 0.00 47 1013.6
20260502181035 16 347 0.0 0.0 0.00 0.00 0.00 47 1013.6
20260502180836 16 347 0.0 0.0 0.00 0.00 0.00 48 1013.7
20260502180635 16 312 0.0 1.6 0.00 0.00 0.00 49 1013.7
20260502180435 16 312 0.0 1.6 0.00 0.00 0.00 50 1013.7
20260502180235 17 6 0.0 1.6 0.00 0.00 0.00 51 1013.7
20260502170435 17 345 0.0 1.6 0.00 0.00 0.00 65 1014.0
20260502170235 18 0 0.0 1.6 0.00 0.00 0.00 65 1014.0
20260502164233 18 0 0.0 4.8 0.00 0.00 0.00 65 1014.2
20260502164034 18 0 0.0 4.8 0.00 0.00 0.00 65 1014.1
20260502163833 18 0 0.0 4.8 0.00 0.00 0.00 65 1014.1
20260502163635 18 320 0.0 4.8 0.00 0.00 0.00 65 1014.2
20260502163434 18 0 0.0 4.8 0.00 0.00 0.00 65 1014.2
20260502163234 18 0 0.0 0.0 0.00 0.00 0.00 65 1014.3
20260502163034 18 338 0.0 0.0 0.00 0.00 0.00 64 1014.2
20260502162833 18 324 0.0 0.0 0.00 0.00 0.00 64 1014.2
20260502162634 18 0 0.0 3.2 0.00 0.00 0.00 64 1014.3
20260502162434 18 0 0.0 3.2 0.00 0.00 0.00 64 1014.2
20260502162234 18 293 0.0 3.2 0.00 0.00 0.00 63 1014.2
20260502162034 18 341 0.0 8.0 0.00 0.00 0.00 62 1014.2
20260502161833 18 0 0.0 8.0 0.00 0.00 0.00 61 1014.3
20260502161633 18 0 0.0 8.0 0.00 0.00 0.00 61 1014.3
20260502161433 18 0 0.0 8.0 0.00 0.00 0.00 60 1014.3
20260502161233 18 0 1.6 8.0 0.00 0.00 0.00 59 1014.3
20260502161033 19 0 0.0 1.6 0.00 0.00 0.00 59 1014.3
20260502160833 19 0 0.0 9.7 0.00 0.00 0.00 57 1014.4
20260502160633 19 0 0.0 9.7 0.00 0.00 0.00 57 1014.3
20260502160432 19 0 0.0 9.7 0.00 0.00 0.00 57 1014.3
20260502160234 19 0 0.0 9.7 0.00 0.00 0.00 56 1014.3
20260502152205 19 0 0.0 3.2 0.00 0.00 0.00 65 1014.5
20260502152007 19 0 0.0 3.2 0.00 0.00 0.00 65 1014.5
20260502151805 19 0 0.0 3.2 0.00 0.00 0.00 65 1014.6
20260502151605 19 305 0.0 3.2 0.00 0.00 0.00 65 1014.6
20260502151406 18 0 0.0 1.6 0.00 0.00 0.00 65 1014.6
20260502151205 18 0 0.0 8.0 0.00 0.00 0.00 65 1014.6
20260502151006 18 0 0.0 8.0 0.00 0.00 0.00 65 1014.7
20260502150806 18 0 0.0 8.0 0.00 0.00 0.00 65 1014.7
20260502150606 18 0 0.0 8.0 0.00 0.00 0.00 65 1014.7
20260502150404 18 0 1.6 8.0 0.00 0.00 0.00 65 1014.8
20260502150204 18 337 0.0 3.2 0.00 0.00 0.00 65 1014.7
20260502130604 20 0 0.0 4.8 0.00 0.00 0.00 62 1015.4
20260502130403 20 0 1.6 4.8 0.00 0.00 0.00 61 1015.5
20260502130205 20 0 0.0 1.6 0.00 0.00 0.00 61 1015.5
20260502123804 20 0 0.0 1.6 0.00 0.00 0.00 60 1015.5
20260502123605 20 0 0.0 1.6 0.00 0.00 0.00 61 1015.4
20260502123403 20 0 0.0 1.6 0.00 0.00 0.00 61 1015.4
20260502123205 20 0 0.0 1.6 0.00 0.00 0.00 60 1015.4
20260502123005 20 331 0.0 1.6 0.00 0.00 0.00 60 1015.5
20260502122804 20 0 0.0 1.6 0.00 0.00 0.00 60 1015.6
20260502122603 20 0 0.0 3.2 0.00 0.00 0.00 61 1015.5
20260502122404 20 0 0.0 3.2 0.00 0.00 0.00 61 1015.5
20260502122205 20 0 0.0 3.2 0.00 0.00 0.00 60 1015.5
20260502122005 20 0 0.0 3.2 0.00 0.00 0.00 61 1015.6
20260502121804 20 0 0.0 3.2 0.00 0.00 0.00 61 1015.5
20260502121604 20 0 0.0 3.2 0.00 0.00 0.00 61 1015.7
20260502121403 20 0 0.0 6.4 0.00 0.00 0.00 61 1015.6
20260502121141 20 0 0.0 6.4 0.00 0.00 0.00 61 1015.6
20260502120932 20 0 0.0 6.4 0.00 0.00 0.00 61 1015.6
20260502120732 20 0 0.0 6.4 0.00 0.00 0.00 61 1015.7
20260502120531 20 0 0.0 6.4 0.00 0.00 0.00 61 1015.7
20260502120329 20 0 0.0 3.2 0.00 0.00 0.00 60 1015.6
20260502120129 20 0 0.0 3.2 0.00 0.00 0.00 60 1015.7
20260502115929 20 0 0.0 4.8 0.00 0.00 0.00 60 1015.7
20260502115730 20 0 0.0 4.8 0.00 0.00 0.00 60 1015.7
20260502115528 20 0 0.0 4.8 0.00 0.00 0.00 61 1015.7
20260502115328 19 0 0.0 4.8 0.00 0.00 0.00 61 1015.7
20260502115128 19 0 1.6 4.8 0.00 0.00 0.00 61 1015.7
20260502114928 19 0 0.0 4.8 0.00 0.00 0.00 61 1015.7
20260502114730 19 0 0.0 4.8 0.00 0.00 0.00 61 1015.7
20260502114529 19 0 0.0 4.8 0.00 0.00 0.00 61 1015.7
20260502114329 19 0 0.0 4.8 0.00 0.00 0.00 62 1015.7
20260502114130 19 0 1.6 8.0 0.00 0.00 0.00 62 1015.7
20260502113928 19 0 0.0 8.0 0.00 0.00 0.00 62 1015.7
20260502113729 19 0 1.6 8.0 0.00 0.00 0.00 63 1015.7
20260502113528 19 0 1.6 8.0 0.00 0.00 0.00 63 1015.7
20260502113329 20 0 0.0 8.0 0.00 0.00 0.00 63 1015.8
20260502113129 20 0 0.0 3.2 0.00 0.00 0.00 63 1015.9
20260502112928 20 0 0.0 3.2 0.00 0.00 0.00 63 1015.8
20260502112728 20 0 0.0 14.5 0.00 0.00 0.00 64 1015.9
20260502112528 20 0 0.0 14.5 0.00 0.00 0.00 64 1015.8
20260502112330 20 0 0.0 14.5 0.00 0.00 0.00 64 1015.8
20260502112130 20 0 0.0 14.5 0.00 0.00 0.00 64 1015.9
20260502111929 20 0 3.2 14.5 0.00 0.00 0.00 64 1015.9
20260502111729 20 0 3.2 8.0 0.00 0.00 0.00 64 1015.9
20260502111530 20 0 1.6 4.8 0.00 0.00 0.00 64 1015.9
20260502111329 20 0 0.0 3.2 0.00 0.00 0.00 64 1015.9
20260502111130 20 0 0.0 11.3 0.00 0.00 0.00 64 1015.9
20260502110930 20 0 0.0 11.3 0.00 0.00 0.00 64 1015.9
20260502110729 20 0 0.0 11.3 0.00 0.00 0.00 64 1015.9
20260502110530 19 0 0.0 11.3 0.00 0.00 0.00 64 1016.0
20260502110329 19 0 1.6 11.3 0.00 0.00 0.00 64 1015.9
20260502110128 19 0 0.0 6.4 0.00 0.00 0.00 64 1015.9
20260502105927 19 0 0.0 6.4 0.00 0.00 0.00 64 1016.1
20260502105727 19 0 1.6 6.4 0.00 0.00 0.00 64 1016.0
20260502105528 19 0 1.6 6.4 0.00 0.00 0.00 64 1016.1
20260502105327 19 0 0.0 6.4 0.00 0.00 0.00 64 1016.1
20260502105127 19 0 0.0 14.5 0.00 0.00 0.00 64 1016.0
20260502104928 19 0 0.0 14.5 0.00 0.00 0.00 63 1016.0
20260502104728 19 0 0.0 14.5 0.00 0.00 0.00 64 1016.0
20260502104528 19 0 0.0 14.5 0.00 0.00 0.00 63 1016.1
20260502104328 19 0 3.2 14.5 0.00 0.00 0.00 63 1016.1
20260502104129 19 0 1.6 6.4 0.00 0.00 0.00 62 1016.1
20260502103927 18 0 1.6 6.4 0.00 0.00 0.00 61 1016.1
20260502103727 18 0 0.0 0.0 0.00 0.00 0.00 60 1016.0
20260502103527 18 0 0.0 0.0 0.00 0.00 0.00 60 1016.0
20260502103327 18 302 0.0 0.0 0.00 0.00 0.00 60 1016.1
20260502103127 18 0 0.0 0.0 0.00 0.00 0.00 60 1016.1
20260502102927 18 319 0.0 0.0 0.00 0.00 0.00 60 1016.0
20260502102727 18 189 0.0 0.0 0.00 0.00 0.00 60 1016.0
20260502102528 17 0 0.0 0.0 0.00 0.00 0.00 60 1016.1
20260502102328 17 0 0.0 0.0 0.00 0.00 0.00 61 1016.2
20260502102127 17 0 0.0 0.0 0.00 0.00 0.00 62 1016.2
20260502101927 17 0 0.0 0.0 0.00 0.00 0.00 62 1016.2
20260502101727 17 0 0.0 0.0 0.00 0.00 0.00 62 1016.2
20260502101528 17 0 0.0 0.0 0.00 0.00 0.00 62 1016.2
20260502101327 17 0 0.0 0.0 0.00 0.00 0.00 62 1016.1
20260502101126 17 166 0.0 0.0 0.00 0.00 0.00 62 1016.1
20260502100926 17 0 0.0 0.0 0.00 0.00 0.00 62 1016.1
20260502100727 17 0 0.0 0.0 0.00 0.00 0.00 62 1016.0
20260502100526 17 0 0.0 0.0 0.00 0.00 0.00 62 1016.0
20260502100324 17 0 0.0 0.0 0.00 0.00 0.00 62 1015.9
20260502100124 17 0 0.0 0.0 0.00 0.00 0.00 62 1016.0
20260502091506 18 0 0.0 4.8 0.00 0.00 0.00 64 1016.4
20260502091307 18 0 0.0 4.8 0.00 0.00 0.00 64 1016.4
20260502091105 18 0 0.0 0.0 0.00 0.00 0.00 64 1016.3
20260502090905 18 0 0.0 0.0 0.00 0.00 0.00 64 1016.3
20260502090706 18 0 0.0 0.0 0.00 0.00 0.00 64 1016.3
20260502090505 18 0 0.0 0.0 0.00 0.00 0.00 64 1016.2
20260502090306 18 0 0.0 0.0 0.00 0.00 0.00 64 1016.2
20260502090106 18 0 0.0 0.0 0.00 0.00 0.00 65 1016.2
20260502071423 16 0 0.0 0.0 0.00 0.00 0.00 65 1016.1
20260502071222 16 0 0.0 0.0 0.00 0.00 0.00 65 1016.2
20260502071022 16 0 0.0 1.6 0.00 0.00 0.00 64 1016.2
20260502070823 16 0 0.0 1.6 0.00 0.00 0.00 64 1016.2
20260502070622 16 0 0.0 1.6 0.00 0.00 0.00 64 1016.2
20260502070423 16 0 0.0 1.6 0.00 0.00 0.00 64 1016.2
20260502070221 15 196 0.0 1.6 0.00 0.00 0.00 64 1016.2
20260502070022 15 0 0.0 1.6 0.00 0.00 0.00 64 1016.3
20260502065821 15 0 0.0 1.6 0.00 0.00 0.00 63 1016.3
20260502065622 15 0 0.0 1.6 0.00 0.00 0.00 63 1016.2
20260502065421 15 0 0.0 1.6 0.00 0.00 0.00 63 1016.2
20260502065221 15 0 0.0 0.0 0.00 0.00 0.00 62 1016.2
20260502065021 15 0 0.0 0.0 0.00 0.00 0.00 61 1016.1
20260502064821 15 0 0.0 0.0 0.00 0.00 0.00 61 1016.2
20260502064621 15 0 0.0 0.0 0.00 0.00 0.00 61 1016.2
20260502064420 15 0 0.0 0.0 0.00 0.00 0.00 61 1016.1
20260502064221 15 0 0.0 0.0 0.00 0.00 0.00 61 1016.2
20260502064021 15 0 0.0 0.0 0.00 0.00 0.00 61 1016.2
20260502063822 15 0 0.0 0.0 0.00 0.00 0.00 61 1016.1
20260502063620 14 0 0.0 0.0 0.00 0.00 0.00 62 1016.2
20260502063420 14 0 0.0 0.0 0.00 0.00 0.00 62 1016.1
20260502063215 14 0 0.0 0.0 0.00 0.00 0.00 62 1016.1
20260502063009 14 0 0.0 0.0 0.00 0.00 0.00 62 1016.2
20260502062806 14 0 0.0 0.0 0.00 0.00 0.00 62 1016.2
20260502062605 13 0 0.0 0.0 0.00 0.00 0.00 63 1016.1
20260502062406 13 0 0.0 0.0 0.00 0.00 0.00 63 1016.1
20260502062205 13 0 0.0 0.0 0.00 0.00 0.00 63 1016.0
20260502062005 13 0 0.0 0.0 0.00 0.00 0.00 63 1016.1
20260502061805 13 0 0.0 0.0 0.00 0.00 0.00 63 1016.0
20260502061605 13 0 0.0 0.0 0.00 0.00 0.00 63 1016.2
20260502061404 13 0 0.0 0.0 0.00 0.00 0.00 63 1016.0
20260502061204 13 0 0.0 0.0 0.00 0.00 0.00 63 1016.1
20260502061004 13 0 0.0 0.0 0.00 0.00 0.00 63 1016.1
20260502060803 13 0 0.0 0.0 0.00 0.00 0.00 63 1016.1
20260502060603 13 0 0.0 0.0 0.00 0.00 0.00 63 1016.0
20260502060404 12 0 0.0 0.0 0.00 0.00 0.00 62 1016.2
20260502060203 12 196 0.0 0.0 0.00 0.00 0.00 62 1016.1
20260502060004 12 0 0.0 0.0 0.00 0.00 0.00 62 1015.8
20260502055802 12 0 0.0 0.0 0.00 0.00 0.00 63 1015.9
20260502055602 12 0 0.0 0.0 0.00 0.00 0.00 63 1016.0
20260502055402 12 0 0.0 0.0 0.00 0.00 0.00 63 1016.0
20260502055202 12 0 0.0 0.0 0.00 0.00 0.00 63 1015.9
20260502055002 12 0 0.0 0.0 0.00 0.00 0.00 63 1016.0
20260502054803 12 0 0.0 0.0 0.00 0.00 0.00 63 1016.0
20260502054603 12 0 0.0 0.0 0.00 0.00 0.00 63 1016.0
20260502054402 12 0 0.0 0.0 0.00 0.00 0.00 63 1016.0
20260502054203 12 0 0.0 0.0 0.00 0.00 0.00 63 1016.1
20260502054002 12 0 0.0 0.0 0.00 0.00 0.00 63 1016.2
20260502053802 12 0 0.0 0.0 0.00 0.00 0.00 63 1016.1
20260502053602 11 0 0.0 0.0 0.00 0.00 0.00 63 1016.0
20260502053405 11 0 0.0 0.0 0.00 0.00 0.00 63 1016.1
20260502053202 11 0 0.0 0.0 0.00 0.00 0.00 62 1016.1
20260502053004 11 0 0.0 0.0 0.00 0.00 0.00 62 1016.1
20260502052803 11 0 0.0 0.0 0.00 0.00 0.00 62 1016.1
20260502052601 11 0 0.0 0.0 0.00 0.00 0.00 62 1016.3
20260502052403 11 0 0.0 0.0 0.00 0.00 0.00 62 1016.2
20260502052202 11 0 0.0 0.0 0.00 0.00 0.00 62 1016.2
20260502052002 11 0 0.0 0.0 0.00 0.00 0.00 62 1016.2
20260502051803 11 0 0.0 0.0 0.00 0.00 0.00 62 1016.3
20260502051603 11 0 0.0 0.0 0.00 0.00 0.00 62 1016.2
20260502051402 11 0 0.0 0.0 0.00 0.00 0.00 62 1016.3
20260502051202 11 195 0.0 0.0 0.00 0.00 0.00 62 1016.2
20260502051002 11 0 0.0 0.0 0.00 0.00 0.00 62 1016.2
20260502050802 11 0 0.0 0.0 0.00 0.00 0.00 62 1016.2
20260502050602 11 0 0.0 0.0 0.00 0.00 0.00 63 1016.2
20260502050402 11 0 0.0 0.0 0.00 0.00 0.00 63 1016.3
20260502050202 11 0 0.0 0.0 0.00 0.00 0.00 63 1016.3
20260502050006 11 189 0.0 0.0 0.00 0.00 0.00 63 1016.2
20260502045802 10 192 0.0 0.0 0.00 0.00 0.00 63 1016.2
20260502045603 10 0 0.0 0.0 0.00 0.00 0.00 63 1016.2
20260502045403 10 0 0.0 0.0 0.00 0.00 0.00 64 1016.2
20260502045203 10 0 0.0 0.0 0.00 0.00 0.00 64 1016.2
20260502045003 10 0 0.0 0.0 0.00 0.00 0.00 64 1016.1
20260502044803 10 190 0.0 0.0 0.00 0.00 0.00 64 1016.3
20260502044602 10 0 0.0 0.0 0.00 0.00 0.00 64 1016.2
20260502044402 10 0 0.0 0.0 0.00 0.00 0.00 64 1016.1
20260502044202 10 0 0.0 0.0 0.00 0.00 0.00 64 1016.1
20260502044002 10 0 0.0 0.0 0.00 0.00 0.00 64 1016.1
20260502043802 10 0 0.0 0.0 0.00 0.00 0.00 64 1016.0
20260502043602 10 0 0.0 0.0 0.00 0.00 0.00 64 1016.1
20260502043402 10 0 0.0 0.0 0.00 0.00 0.00 64 1016.1
20260502043202 11 0 0.0 0.0 0.00 0.00 0.00 64 1016.1
20260502043005 11 0 0.0 0.0 0.00 0.00 0.00 64 1016.1
20260502042802 11 0 0.0 0.0 0.00 0.00 0.00 64 1016.0
20260502042603 11 0 0.0 0.0 0.00 0.00 0.00 64 1016.1
20260502042402 11 0 0.0 0.0 0.00 0.00 0.00 64 1016.1
20260502042203 11 0 0.0 0.0 0.00 0.00 0.00 64 1016.2
20260502042002 11 0 0.0 0.0 0.00 0.00 0.00 64 1016.2
20260502041802 11 0 0.0 0.0 0.00 0.00 0.00 64 1016.3
20260502041602 11 0 0.0 0.0 0.00 0.00 0.00 65 1016.3
20260502041402 11 0 0.0 0.0 0.00 0.00 0.00 65 1016.2
20260502041203 11 0 0.0 0.0 0.00 0.00 0.00 65 1016.3
20260502041003 11 0 0.0 0.0 0.00 0.00 0.00 65 1016.3
20260502040802 11 0 0.0 0.0 0.00 0.00 0.00 65 1016.4
20260502040602 11 0 0.0 0.0 0.00 0.00 0.00 65 1016.3
20260502040404 11 0 0.0 0.0 0.00 0.00 0.00 65 1016.4
20260502040204 11 0 0.0 0.0 0.00 0.00 0.00 65 1016.3
20260502040006 11 0 0.0 0.0 0.00 0.00 0.00 66 1016.3
20260502035804 11 0 0.0 0.0 0.00 0.00 0.00 66 1016.4
20260502035603 11 0 0.0 0.0 0.00 0.00 0.00 66 1016.3
20260502035405 11 0 0.0 0.0 0.00 0.00 0.00 66 1016.4
20260502035204 11 0 0.0 0.0 0.00 0.00 0.00 66 1016.4
20260502035005 11 0 0.0 0.0 0.00 0.00 0.00 66 1016.4
20260502034803 11 0 0.0 0.0 0.00 0.00 0.00 66 1016.5
20260502034604 11 0 0.0 0.0 0.00 0.00 0.00 66 1016.4
20260502034404 11 0 0.0 0.0 0.00 0.00 0.00 66 1016.5
20260502034204 11 0 0.0 0.0 0.00 0.00 0.00 66 1016.5
20260502034004 11 0 0.0 0.0 0.00 0.00 0.00 66 1016.5
20260502033805 11 0 0.0 0.0 0.00 0.00 0.00 66 1016.5
20260502033604 11 0 0.0 0.0 0.00 0.00 0.00 66 1016.5
20260502033403 11 0 0.0 0.0 0.00 0.00 0.00 66 1016.6
20260502033204 11 0 0.0 0.0 0.00 0.00 0.00 67 1016.5
20260502033006 11 0 0.0 0.0 0.00 0.00 0.00 67 1016.6
20260502032803 11 0 0.0 0.0 0.00 0.00 0.00 67 1016.5
20260502032605 11 0 0.0 0.0 0.00 0.00 0.00 67 1016.5
20260502032405 11 0 0.0 0.0 0.00 0.00 0.00 67 1016.5
20260502032204 11 0 0.0 0.0 0.00 0.00 0.00 67 1016.5
20260502032005 11 0 0.0 0.0 0.00 0.00 0.00 67 1016.5
20260502031804 11 0 0.0 0.0 0.00 0.00 0.00 67 1016.5
20260502031606 11 0 0.0 0.0 0.00 0.00 0.00 67 1016.6
20260502031347 11 0 0.0 0.0 0.00 0.00 0.00 67 1016.5
20260502031134 11 0 0.0 0.0 0.00 0.00 0.00 67 1016.5
20260502030932 11 0 0.0 0.0 0.00 0.00 0.00 67 1016.5
20260502030733 11 0 0.0 0.0 0.00 0.00 0.00 67 1016.6
20260502030533 11 0 0.0 0.0 0.00 0.00 0.00 67 1016.6
20260502030332 11 0 0.0 0.0 0.00 0.00 0.00 67 1016.5
20260502030131 11 0 0.0 0.0 0.00 0.00 0.00 67 1016.6
20260502025918 11 0 0.0 0.0 0.00 0.00 0.00 67 1016.6
20260502025719 11 0 0.0 0.0 0.00 0.00 0.00 67 1016.6
20260502025519 11 0 0.0 0.0 0.00 0.00 0.00 66 1016.6
20260502025319 11 0 0.0 0.0 0.00 0.00 0.00 66 1016.6
20260502025119 12 0 0.0 0.0 0.00 0.00 0.00 66 1016.7
20260502024919 12 0 0.0 0.0 0.00 0.00 0.00 66 1016.7
20260502024719 12 0 0.0 0.0 0.00 0.00 0.00 66 1016.7
20260502024518 12 0 0.0 0.0 0.00 0.00 0.00 66 1016.7
20260502024318 12 0 0.0 0.0 0.00 0.00 0.00 66 1016.7
20260502024119 12 0 0.0 0.0 0.00 0.00 0.00 66 1016.7
20260502023918 12 0 0.0 0.0 0.00 0.00 0.00 66 1016.7
20260502023718 12 0 0.0 0.0 0.00 0.00 0.00 66 1016.8
20260502023518 12 0 0.0 0.0 0.00 0.00 0.00 66 1016.8
20260502023318 12 0 0.0 0.0 0.00 0.00 0.00 66 1016.8
20260502023118 12 0 0.0 0.0 0.00 0.00 0.00 66 1016.8
20260502022931 12 0 0.0 0.0 0.00 0.00 0.00 66 1016.8
20260502022718 12 0 0.0 0.0 0.00 0.00 0.00 66 1016.9
20260502022518 12 0 0.0 0.0 0.00 0.00 0.00 66 1016.8
20260502022318 12 0 0.0 0.0 0.00 0.00 0.00 65 1016.9
20260502022117 12 0 0.0 0.0 0.00 0.00 0.00 65 1016.9
20260502021905 12 0 0.0 0.0 0.00 0.00 0.00 65 1016.9
20260502021705 12 0 0.0 0.0 0.00 0.00 0.00 65 1016.9
20260502021505 12 0 0.0 0.0 0.00 0.00 0.00 65 1016.9
20260502021308 12 0 0.0 0.0 0.00 0.00 0.00 65 1017.0
20260502021105 12 0 0.0 0.0 0.00 0.00 0.00 65 1016.9
20260502020905 12 0 0.0 0.0 0.00 0.00 0.00 65 1017.0
20260502020705 12 0 0.0 0.0 0.00 0.00 0.00 65 1016.9
20260502020507 12 0 0.0 0.0 0.00 0.00 0.00 65 1017.0
20260502020306 12 0 0.0 0.0 0.00 0.00 0.00 65 1017.0
20260502020106 12 0 0.0 0.0 0.00 0.00 0.00 64 1017.0
20260502015906 12 0 0.0 0.0 0.00 0.00 0.00 64 1017.0
20260502015705 12 0 0.0 0.0 0.00 0.00 0.00 64 1017.1
20260502015506 12 0 0.0 0.0 0.00 0.00 0.00 64 1017.1
20260502015306 12 0 0.0 0.0 0.00 0.00 0.00 64 1017.1
20260502015105 12 0 0.0 0.0 0.00 0.00 0.00 64 1017.1
20260502014906 12 0 0.0 0.0 0.00 0.00 0.00 64 1017.0
20260502014705 12 0 0.0 0.0 0.00 0.00 0.00 64 1017.1
20260502014506 12 0 0.0 0.0 0.00 0.00 0.00 63 1017.1
20260502014308 12 0 0.0 0.0 0.00 0.00 0.00 63 1017.0
20260502014105 12 0 0.0 0.0 0.00 0.00 0.00 63 1017.2
20260502013906 12 0 0.0 0.0 0.00 0.00 0.00 63 1017.2
20260502013705 12 0 0.0 0.0 0.00 0.00 0.00 63 1017.1
20260502013505 12 0 0.0 0.0 0.00 0.00 0.00 63 1017.1
20260502013307 12 0 0.0 0.0 0.00 0.00 0.00 63 1017.1
20260502013104 12 0 0.0 0.0 0.00 0.00 0.00 63 1017.1
20260502012906 12 0 0.0 0.0 0.00 0.00 0.00 63 1017.2
20260502012705 12 0 0.0 0.0 0.00 0.00 0.00 63 1017.2
20260502012506 12 0 0.0 0.0 0.00 0.00 0.00 63 1017.2
20260502012308 12 0 0.0 0.0 0.00 0.00 0.00 63 1017.5
20260502012105 12 0 0.0 0.0 0.00 0.00 0.00 63 1017.5
20260502011904 12 0 0.0 0.0 0.00 0.00 0.00 63 1017.4
20260502011705 12 0 0.0 0.0 0.00 0.00 0.00 63 1017.5
20260502011507 12 0 0.0 0.0 0.00 0.00 0.00 63 1017.5
20260502011306 12 0 0.0 0.0 0.00 0.00 0.00 63 1017.4
20260502011105 12 0 0.0 0.0 0.00 0.00 0.00 63 1017.5
20260502010905 12 0 0.0 0.0 0.00 0.00 0.00 63 1017.6
20260502010706 12 0 0.0 0.0 0.00 0.00 0.00 63 1017.5
20260502010505 12 0 0.0 0.0 0.00 0.00 0.00 63 1017.6
20260502010306 12 0 0.0 0.0 0.00 0.00 0.00 63 1017.6
20260502010106 12 0 0.0 0.0 0.00 0.00 0.00 63 1017.6
20260502005905 12 0 0.0 0.0 0.00 0.00 0.00 63 1017.6
20260502005705 12 0 0.0 0.0 0.00 0.00 0.00 63 1017.7
20260502005505 12 0 0.0 0.0 0.00 0.00 0.00 62 1017.7